Regional Weather Roundup
Issued by NWS

Home | Current Version | Previous Version | Text Only | Print | Product List | Glossary On
Versions: 1 2 3 4 5 6 7 8 9 10 11 12 13 14 15 16 17 18 19 20 21 22 23 24 25 26 27 28 29 30 31 32 33 34 35 36 37 38 39 40 41 42 43 44 45 46 47 48 49 50
000
ASUS42 KTBW 272016
RWRFL
FLORIDA REGIONAL WEATHER ROUNDUP
NATIONAL WEATHER SERVICE TAMPA BAY RUSKIN FL
400 PM EDT THU AUG 27 2015

NOTE: "FAIR" INDICATES FEW OR NO CLOUDS BELOW 12,000 FEET WITH NO
SIGNIFICANT WEATHER AND/OR OBSTRUCTIONS TO VISIBILITY.


FLZ001>010-012>015-112-114-115-272100-
PANHANDLE FLORIDA

CITY           SKY/WX    TMP DP  RH WIND       PRES   REMARKS
PENSACOLA      SUNNY     85  66  53 S13       29.93F
PENSACOLA NAS  MOSUNNY   84  66  54 S10       29.93F
MILTON NAS     MOSUNNY   90  59  35 VRB3      29.92
CRESTVIEW      SUNNY     92  61  35 N7        29.94F
DUKE FIELD     MOSUNNY   91  54  28 VRB6      29.91F
VALPARAISO     SUNNY     86  63  45 S7        29.92F
MARY ESTHER    SUNNY     85  62  46 S10       29.92F
TRI COUNTY     FAIR      91  57  31 CALM      29.92F
PANAMA CITY    FAIR      89  61  38 S10       29.90F
TYNDALL AFB    SUNNY     87  62  43 W10       29.91F
APALACHICOLA   SUNNY     88  70  55 SE9       29.90F

STATION/POSITION SKY/WX   TEMP    WIND        PRES    WAVE   SWELL
                          AIR SEA DIR/SP/G            HT/PER HT/PER
                          (F)     (DEG/KT/KT) (MB)    (FT/S) (FT/S)
30.1N   87.6W              80 87  250/  4/  6 1013.7F   1
29.2N   88.2W              80 87  340/  6/  8 1014.6F   2/ 4   2/ 4
28.8N   86.0W              82 86   30/  8/  8 1013.6F   1/ 4
PANAMA CITY BEAC           83     230/  9/ 10   N/A
CAPE SAN BLAS    NOT AVBL
TOWER C                    83      80/  4/  5 1012.6F
28.5N   84.5W              86 89  170/  4/  6 1012.8F   2/ 4   2/ 4

$$
FLZ011-016>038-118-127-128-134-139-239-272100-
NORTH FLORIDA

CITY           SKY/WX    TMP DP  RH WIND       PRES   REMARKS
MARIANNA       SUNNY     92  57  30 VRB3      29.90F
TALLAHASSEE    MOSUNNY   93  62  35 SE3       29.90F
PERRY          MOSUNNY   91  51  25 CALM      29.90F
CROSS CITY       N/A     86  76  71 SW7       29.89F HX  96
LAKE CITY      FAIR      88  73  62 SE7       29.91F HX  96
GAINESVILLE    CLOUDY    86  75  69 S7        29.91F HX  95
MAYPORT NAS    CLOUDY    87  75  67 E10       29.92F HX  96
JACKSONVILLE   CLOUDY    87  72  60 SE3       29.91F
JAX NAS        PTSUNNY   92  72  51 VRB7      29.92F HX  99
JAX CRAIG      CLOUDY    88  73  61 E8        29.91F HX  95
JAX CECIL      MOSUNNY   88  73  62 CALM      29.92F HX  96
FERNANDINA BEA FAIR      88  73  62 SE8       29.92F HX  96
ST AUGUSTINE   CLOUDY    84  75  74 E8        29.93F

STATION/POSITION SKY/WX   TEMP    WIND        PRES    WAVE   SWELL
                          AIR SEA DIR/SP/G            HT/PER HT/PER
                          (F)     (DEG/KT/KT) (MB)    (FT/S) (FT/S)
SHELL POINT                88     150/  5/  7   N/A
KEATON BEACH               85     180/  9/ 10 1012.8F
CEDAR KEY                  84     160/ 10/ 12 1013.1F
FERNANDINA                 84     130/  5/  8   N/A
30.7N   81.3W                 87                N/A     2/ 9
MAYPORT                    84     100/  7/ 11   N/A
31.4N   80.9W              82 86  150/ 14/ 16 1014.0F   4/ 5   2/10
ST AUGUSTINE               82 87  130/  8/  9 1014.1F

$$
FLZ040-043>046-052-053-057-058-063-144-272100-
INTERIOR CENTRAL FLORIDA

CITY           SKY/WX    TMP DP  RH WIND       PRES   REMARKS
OCALA          PTSUNNY   86  73  66 S7        29.93F
THE VILLAGES     N/A     84  73  70 SE6       29.83F
LEESBURG       CLOUDY    83  74  74 S6        29.94F
SANFORD        CLOUDY    77  74  90 E5        29.94F
ORLANDO EXEC   CLOUDY    78  75  90 E5        29.94F
ORLANDO INTL   CLOUDY    78  74  87 S6        29.94F
KISSIMMEE      SUNNY     79  73  83 CALM      29.94F
WINTER HAVEN   CLOUDY    80  73  79 CALM      29.95F
LAKELAND       PTSUNNY   82  73  74 CALM      29.94F
BARTOW         PTSUNNY   81  72  74 CALM      29.94F
OKEECHOBEE       N/A     73  70  88 CALM      29.94F

$$
FLZ041-047-054-059-064-141-147-272100-
EAST CENTRAL FLORIDA

CITY           SKY/WX    TMP DP  RH WIND       PRES   REMARKS
ORMOND BEACH   SUNNY     75  72  88 CALM      29.94F
DAYTONA BEACH  CLOUDY    75  71  87 S5        29.94
DELAND           N/A     77  73  88 CALM      29.95F
NEW SMYRNA BEA PTSUNNY   75  73  94 SW6       29.94F
JFK SPACE CTR  LGT RAIN  74  71  89 NW6       29.96R
TITUSVILLE     LGT RAIN  73  72  94 NW6       29.97S
CAPE CANAVERAL TSTM      77  69  75 NE5       29.96R
PATRICK AFB    LGT RAIN  73  72  94 E6        29.93F
MELBOURNE      LGT RAIN  74  73  97 N5        29.94F
VERO BEACH     CLOUDY    77  73  87 NW10      29.94F
FT PIERCE      PTSUNNY   80  74  81 NW3       29.93F
STUART         TSTM      82  72  69 SW16      29.95F

STATION/POSITION SKY/WX   TEMP    WIND        PRES    WAVE   SWELL
                          AIR SEA DIR/SP/G            HT/PER HT/PER
                          (F)     (DEG/KT/KT) (MB)    (FT/S) (FT/S)
28.5N   80.2W              82 85  130/  6/  8 1014.5F
28.9N   78.5W              75 85  260/  2/  4 1016.2F
TRIDENT PIER               78     240/ 14/ 21   N/A
28.4N   80.5W                 87                N/A     1/10
27.5N   80.2W                 86                N/A     1/ 9

$$
FLZ050-056-061-142-242-148-248-149-249-151-251-155-255-
160-260-272100-
WEST CENTRAL FLORIDA

CITY           SKY/WX    TMP DP  RH WIND       PRES   REMARKS
CRYSTAL RIVER  FAIR      88  75  66 E5        29.91F HX  97
INVERNESS      FAIR      84  77  79 SE5       29.93F
BROOKSVILLE    CLOUDY    84  75  74 VRB7      29.93F
CLEARWATER     CLOUDY    83  74  74 S7        29.92F
TAMPA INTL     CLOUDY    84  74  71 SE5       29.93F
TAMPA EXEC     CLOUDY    86  73  66 CALM      29.93F
PLANT CITY     CLOUDY    86  73  66 E3        29.95F
MACDILL AFB    CLOUDY    83  78  84 SE5       29.92F
PETER O KNIGHT CLOUDY    84  77  79 S3        29.93F
ST PETERSBURG  CLOUDY    84  75  74 S6        29.90F
SARASOTA       PTSUNNY   85  75  72 E7        29.90F
VENICE         FAIR      82  72  69 S5        29.94S

STATION/POSITION SKY/WX   TEMP    WIND        PRES    WAVE   SWELL
                          AIR SEA DIR/SP/G            HT/PER HT/PER
                          (F)     (DEG/KT/KT) (MB)    (FT/S) (FT/S)
CEDAR KEY                  84     160/ 10/ 12 1013.1F
28.5N   84.5W              86 89  170/  4/  6 1012.8F   2/ 4   2/ 4
27.3N   84.2W                 89                N/A     2/ 4
CLEARWATER BEACH           81     140/  5/  9   N/A
MIDDLE TAMPA BAY           82     180/  7/  9   N/A
VENICE                     82 89  150/  4/  5 1012.6F

$$
FLZ066-069-070-075>078-162-262-165-265-272100-
SOUTHWEST FLORIDA AND KEYS

CITY           SKY/WX    TMP DP  RH WIND       PRES   REMARKS
PUNTA GORDA    LGT RAIN  79  77  94 NE8       29.95R
FT MYERS       LGT RAIN  81  73  76 SE3       29.90F
SOUTHWEST INTL CLOUDY    85  73  67 SW6       29.91F
NAPLES         CLOUDY    85  74  69 SW9       29.92F
MARATHON       CLOUDY    88  76  67 CALM      29.94F HX  99
KEY WEST NAS   CLOUDY    82  72  71 SW6       29.94F
KEY WEST INTL  CLOUDY    82  74  76 S3        29.94F

STATION/POSITION SKY/WX   TEMP    WIND        PRES    WAVE   SWELL
                          AIR SEA DIR/SP/G            HT/PER HT/PER
                          (F)     (DEG/KT/KT) (MB)    (FT/S) (FT/S)
VENICE                     82 89  150/  4/  5 1012.6F
NAPLES                                        1015.1F
26.0N   85.6W              83 89  340/  8/ 12 1013.5F   2/ 4   2/ 4
DRY TORTUGAS               86     330/  4/  5 1013.8F
NW FL BAY                  84     250/  3/  4 1014.5
SAND KEY                   81     190/  9     1013.7F
LONG KEY                   85 89  340/  1/  3 1014.5F
MOLASSES REEF              83 88   70/  3/  5 1014.0F

$$
FLZ067-068-071>074-168-172>174-272100-
SOUTHEAST FLORIDA

CITY           SKY/WX    TMP DP  RH WIND       PRES   REMARKS
W PALM BEACH   CLOUDY    78  70  76 W22G31    29.96S THUNDER
FT LAUDER-EXEC PTSUNNY   87  71  58 VRB5      29.92F
FT LAUDERDALE  CLOUDY    86  72  62 CALM      29.92F
POMPANO BEACH  PTSUNNY   85  73  67 S3        29.93F
PEMBROKE PINES PTSUNNY   87  69  54 CALM      29.94F
OPA LOCKA      PTSUNNY   89  69  51 NW3       29.93F
MIAMI          CLOUDY    89  73  59 W5        29.93F HX  97
WEST KENDALL   PTSUNNY   88  72  58 VRB3      29.94F
HOMESTEAD      PTSUNNY   89  72  58 S3        29.93F HX  95

STATION/POSITION SKY/WX   TEMP    WIND        PRES    WAVE   SWELL
                          AIR SEA DIR/SP/G            HT/PER HT/PER
                          (F)     (DEG/KT/KT) (MB)    (FT/S) (FT/S)
PORT EVERGLADES            83     140/  4/  5 1014.9R
VIRGINIA KEY               83      90/  2/  3   N/A
LAKE WORTH                 83     170/  6/  7   N/A
SETTLEMENT POINT           79     160/  4/  5 1014.7F

$$



USA.gov is the U.S. government's official web portal to all federal, state and local government web resources and services.